Wind_Speed
30 30 30 30 28 28 30 32 33 32 31 29 30 30 30 30 30 31 31 30 29 30 30 31 33 33 33 34 35 37 37 37 38 40 41 42 43 43 43 43 42 42 42 42
30 30 30 30 28 28 29 30 31 32 31 31 31 31 31 31 32 32 31 31 30 30 29 30 31 31 31 32 34 36 37 37 38 40 41 41 41 41 42 42 41 41 42 42
30 30 30 29 27 29 29 29 29 30 30 31 32 32 33 32 32 32 31 30 30 30 29 29 30 30 30 31 32 34 35 36 37 39 40 41 41 42 42 42 43 43 43 42
31 30 31 29 29 29 29 28 29 29 29 30 30 32 33 33 32 31 31 30 30 30 30 29 29 30 30 30 30 31 32 34 34 36 38 39 41 42 42 43 43 43 43 43
31 32 31 29 29 30 30 28 28 28 28 29 30 32 33 33 33 32 31 31 30 30 30 29 29 29 29 29 29 30 31 32 34 35 36 37 38 39 40 41 42 43 44 44
31 32 32 30 30 30 30 29 27 28 29 29 30 32 32 32 33 33 33 32 32 31 30 29 29 29 30 30 30 31 32 33 34 35 36 37 38 38 38 39 40 41 41 42
31 32 32 30 30 30 30 29 28 28 29 30 31 31 31 31 31 32 32 32 32 32 31 30 30 30 30 31 31 31 32 34 34 34 35 36 37 37 37 37 38 38 38 39
32 33 32 30 31 31 30 30 30 30 30 31 31 31 31 31 31 31 32 32 32 32 32 32 31 31 31 31 31 31 32 33 33 34 34 34 35 35 36 36 36 36 37 36
32 32 31 32 32 31 31 31 31 31 31 32 32 32 32 31 31 31 32 32 32 32 32 32 32 32 31 31 32 32 31 31 32 33 33 33 34 34 35 35 36 35 35 35
32 31 31 31 31 31 32 32 32 33 33 33 33 33 33 33 32 32 32 32 32 32 31 31 32 32 31 32 32 32 31 30 30 31 33 33 34 34 34 35 35 34 34 34
32 30 30 30 31 32 32 32 32 33 33 33 33 33 33 33 33 33 33 33 33 32 31 31 31 31 30 30 30 31 31 31 30 30 31 32 32 32 33 33 34 33 33 33
31 30 31 30 31 32 32 32 33 33 33 33 32 32 32 33 33 33 32 31 31 31 31 31 31 30 29 29 29 29 29 30 30 30 30 31 31 31 31 31 31 30 30 30
31 31 31 31 31 31 32 32 32 32 32 31 31 31 31 31 30 30 30 29 29 29 29 30 30 30 30 29 29 29 29 29 29 29 30 30 30 30 29 29 28 28 28 29
31 31 31 31 31 31 32 31 30 30 29 30 30 30 29 29 29 29 29 28 28 28 28 28 29 29 29 29 29 29 29 29 29 29 29 29 29 29 28 28 27 27 28 28
29 29 29 29 30 30 30 30 29 29 29 29 29 29 29 29 29 29 29 28 28 28 28 29 28 28 28 28 29 28 28 29 29 30 29 29 29 29 28 27 27 27 28 28
27 28 28 29 30 30 30 30 30 29 30 30 30 30 30 30 30 29 29 29 28 28 28 28 28 28 27 28 28 28 28 29 29 29 29 29 29 29 29 28 27 27 26 27
26 27 28 29 29 30 30 30 30 30 30 30 29 29 29 29 29 29 28 29 28 28 28 28 27 27 27 27 28 28 28 28 28 29 29 28 28 28 28 27 26 26 26 26
26 27 27 28 29 29 29 29 29 29 29 29 29 29 29 29 29 28 28 28 28 28 28 27 27 27 26 26 26 26 26 27 28 28 28 28 27 27 27 27 27 26 26 25
27 27 28 28 28 28 28 28 27 27 27 27 27 27 27 28 28 28 28 27 27 26 27 27 26 26 26 26 25 25 25 25 25 26 26 26 27 27 27 27 26 26 26 25
27 27 27 27 27 27 26 26 26 26 26 26 26 26 26 26 26 27 27 26 25 25 25 24 24 24 25 24 24 24 23 23 23 24 25 25 26 26 26 26 26 26 25 25
27 27 27 27 26 26 26 25 25 25 25 25 25 24 24 25 25 25 25 25 25 24 23 22 22 23 23 23 22 22 21 21 22 22 22 23 24 25 25 25 25 25 25 25
26 26 25 25 25 25 25 24 24 24 24 24 24 24 24 24 24 24 23 23 23 22 22 21 21 21 21 21 21 21 21 21 21 21 21 21 22 23 24 24 24 25 25 25
25 25 24 24 24 23 23 22 22 22 22 22 22 22 22 22 22 22 21 20 20 20 20 20 20 19 19 20 20 20 20 20 19 19 19 19 20 21 22 23 23 24 24 24
22 22 22 21 21 20 20 20 20 20 20 21 21 20 20 20 20 19 18 18 17 17 17 18 18 18 18 18 18 18 18 18 18 18 19 19 19 19 20 21 21 22 22 22
21 20 20 19 19 19 19 19 19 19 19 19 19 19 19 19 19 18 18 17 17 16 16 17 17 17 17 17 18 18 18 18 18 18 18 18 19 19 19 19 20 20 20 21
20 20 19 19 19 18 18 18 18 18 18 18 18 18 18 18 18 18 18 17 17 16 16 16 16 17 17 17 17 17 17 17 17 17 17 18 18 18 18 18 19 19 19 20
20 20 20 19 19 19 18 18 18 18 18 18 18 19 19 19 19 18 18 18 17 17 17 17 16 16 17 17 17 17 16 17 17 17 16 16 17 18 18 18 18 18 18 19
Wind_Direction
273 273 271 270 271 272 273 274 274 275 276 276 275 275 277 278 279 280 281 279 276 276 275 271 267 265 264 263 261 259 258 258 255 252 252 252 253 254 255 257 259 260 261 262
272 272 272 270 271 272 274 276 276 275 274 274 274 275 277 279 280 281 280 278 277 277 275 273 269 265 264 262 261 260 260 259 256 254 253 253 254 256 257 258 259 261 261 261
274 273 273 271 272 273 275 278 279 278 277 275 274 275 276 278 279 281 280 277 276 276 277 275 271 267 265 264 262 261 261 260 258 256 255 255 255 257 258 260 261 261 262 262
274 273 273 274 274 274 275 276 277 278 277 277 277 277 276 277 278 279 278 275 275 277 278 276 273 268 267 266 264 262 261 259 259 258 257 256 257 258 259 261 261 261 262 262
272 273 274 274 275 275 275 275 276 277 278 278 278 278 277 277 277 277 276 275 275 276 278 276 273 269 268 265 262 262 261 260 260 258 257 257 257 258 259 260 261 262 262 261
271 273 274 275 276 275 275 274 275 276 277 277 278 278 278 276 276 275 274 273 274 275 277 277 274 270 268 266 262 261 260 260 260 259 258 258 258 259 260 262 263 264 263 261
271 272 274 276 275 275 274 275 276 277 279 279 279 280 279 277 277 276 274 273 273 274 276 276 275 272 269 266 264 263 260 259 259 258 258 259 259 260 262 263 264 264 263 260
271 272 274 275 274 274 274 274 276 277 279 280 281 281 281 279 278 277 275 273 272 273 274 275 275 272 268 266 265 264 262 259 257 256 257 259 260 261 262 263 264 264 262 260
272 274 274 273 272 272 272 273 275 277 279 280 281 281 280 279 279 278 276 273 273 273 273 274 273 272 269 266 265 265 263 261 258 258 258 260 260 261 263 263 264 264 261 258
274 274 274 273 272 272 272 274 276 278 279 281 281 281 280 279 278 278 276 275 273 273 273 273 272 272 271 267 265 264 262 262 260 259 259 260 260 262 262 263 264 263 260 258
274 274 272 272 273 274 273 275 277 279 280 281 281 280 280 279 279 278 277 276 275 273 272 271 270 270 271 269 267 265 262 261 261 260 261 261 262 262 263 264 264 263 261 258
274 274 273 274 275 276 275 276 278 279 280 279 279 280 280 279 279 278 278 277 275 273 273 272 271 271 271 270 269 266 262 260 260 260 262 262 263 264 265 266 265 262 260 260
274 274 274 275 276 277 277 277 277 278 278 278 279 280 280 280 279 278 277 277 275 273 273 272 271 271 271 271 269 267 263 261 260 260 262 262 264 265 266 264 263 261 261 261
272 274 274 276 277 277 276 276 276 276 277 278 279 280 280 280 280 279 277 276 275 273 272 272 272 271 271 270 269 268 265 262 261 262 263 263 263 264 264 264 262 262 262 263
273 273 274 275 276 276 276 276 276 276 277 278 279 279 279 279 280 279 277 276 275 274 273 273 272 271 270 270 269 268 265 263 262 263 263 262 261 261 262 262 261 262 262 261
275 274 274 276 276 276 276 276 277 277 278 278 278 279 279 280 279 278 277 276 275 275 275 274 272 271 271 270 269 268 267 265 263 262 262 261 259 259 259 260 261 261 262 261
276 276 277 278 278 277 277 277 277 278 279 279 279 279 279 279 278 278 277 276 275 275 275 274 272 271 271 270 270 270 268 266 264 262 261 260 260 259 258 258 259 260 261 261
277 279 280 281 281 280 278 278 279 279 279 279 279 279 279 279 278 278 277 276 276 276 274 273 272 271 270 270 270 269 268 268 265 261 259 259 258 257 257 257 257 259 260 259
280 281 282 282 283 284 282 280 279 279 279 278 279 279 279 279 279 278 278 277 276 276 275 273 272 270 270 271 270 269 268 267 264 261 259 258 257 256 256 256 256 258 259 260
282 282 282 283 283 283 283 283 282 280 279 280 281 281 280 280 279 278 278 278 276 276 275 274 271 269 270 270 270 268 267 265 263 262 260 258 257 255 254 254 254 256 257 259
284 284 284 283 283 284 283 283 282 280 280 281 281 280 280 281 280 279 280 279 277 275 274 273 271 269 269 269 267 267 266 265 264 262 261 258 257 255 254 253 253 254 256 259
284 284 283 283 283 282 281 281 281 281 281 281 282 282 282 282 282 281 281 279 277 276 273 271 270 269 267 267 266 265 265 264 263 261 261 261 259 256 253 251 252 253 256 260
285 284 284 284 284 282 281 281 282 282 282 283 283 283 283 283 282 281 281 280 278 276 272 269 268 268 268 268 267 265 264 264 263 262 263 263 260 256 253 253 254 255 257 259
288 288 287 286 285 284 283 282 282 282 282 283 283 282 282 282 282 281 280 280 278 276 273 269 266 266 267 268 268 267 266 265 264 264 264 263 261 258 257 257 258 258 259 260
289 289 288 288 286 285 284 284 283 283 282 282 281 281 281 281 281 281 280 279 278 275 272 271 268 267 267 269 269 269 268 266 264 264 264 262 261 259 258 259 261 262 262 262
290 289 288 288 286 286 286 286 285 283 282 281 280 280 281 281 282 281 278 275 272 271 271 272 271 270 270 271 270 268 266 265 264 264 264 263 261 259 260 262 264 265 265 266
290 289 289 288 287 286 286 286 284 283 283 282 280 280 280 280 281 280 276 272 269 270 271 273 274 274 273 271 269 266 265 266 265 265 265 264 263 261 262 263 265 266 267 267
Height
5582 5582 5582 5582 5582 5582 5581 5581 5581 5582 5581 5581 5580 5579 5578 5577 5576 5576 5575 5574 5573 5572 5572 5571 5572 5572 5573 5573 5574 5576 5578 5580 5582 5584 5587 5589 5592 5594 5596 5598 5599 5601 5602 5603
5574 5574 5574 5574 5575 5575 5574 5574 5573 5573 5573 5573 5572 5571 5570 5570 5569 5568 5567 5567 5566 5565 5564 5564 5564 5564 5565 5565 5566 5567 5569 5571 5573 5575 5577 5579 5582 5584 5586 5588 5589 5590 5591 5593
5566 5566 5565 5567 5569 5568 5567 5567 5567 5565 5567 5564 5564 5563 5563 5562 5561 5560 5560 5559 5558 5558 5557 5556 5556 5556 5557 5557 5558 5559 5560 5562 5563 5565 5567 5569 5571 5574 5576 5577 5578 5579 5580 5581
5557 5558 5558 5563 5561 5560 5560 5560 5559 5558 5557 5556 5555 5555 5554 5553 5553 5552 5552 5551 5550 5550 5549 5548 5548 5548 5548 5549 5550 5550 5551 5553 5554 5556 5557 5559 5561 5563 5565 5566 5567 5568 5569 5570
5549 5548 5549 5554 5553 5552 5552 5552 5552 5550 5549 5548 5547 5546 5546 5545 5544 5544 5543 5543 5543 5542 5542 5541 5540 5540 5540 5541 5541 5542 5543 5544 5545 5546 5547 5549 5550 5552 5554 5555 5556 5557 5558 5559
5541 5540 5541 5546 5545 5543 5544 5544 5544 5542 5541 5540 5539 5539 5539 5537 5536 5535 5534 5534 5534 5534 5533 5533 5532 5532 5532 5532 5532 5533 5534 5535 5535 5536 5538 5539 5540 5541 5543 5544 5545 5545 5546 5547
5533 5532 5534 5537 5536 5535 5536 5537 5536 5534 5533 5532 5531 5530 5530 5528 5527 5526 5526 5525 5525 5525 5525 5524 5524 5523 5523 5523 5523 5524 5524 5525 5526 5527 5528 5529 5530 5531 5532 5533 5534 5535 5535 5536
5525 5525 5529 5529 5527 5527 5527 5527 5526 5525 5524 5523 5522 5521 5520 5519 5519 5518 5517 5517 5516 5516 5516 5516 5515 5514 5514 5514 5514 5514 5515 5515 5516 5517 5518 5519 5520 5521 5522 5523 5523 5524 5525 5526
5518 5520 5520 5519 5518 5518 5518 5518 5517 5516 5516 5514 5513 5513 5512 5511 5510 5509 5508 5508 5507 5507 5507 5507 5506 5505 5505 5505 5505 5505 5505 5506 5506 5507 5508 5509 5510 5511 5512 5513 5513 5514 5514 5515
5509 5511 5511 5510 5509 5509 5509 5508 5508 5507 5507 5505 5504 5503 5503 5502 5501 5500 5499 5498 5498 5497 5497 5497 5496 5496 5495 5495 5495 5496 5496 5497 5497 5498 5499 5500 5500 5501 5502 5503 5503 5503 5504 5505
5501 5502 5501 5501 5501 5500 5499 5499 5499 5498 5497 5496 5495 5494 5493 5492 5491 5490 5489 5489 5488 5488 5487 5487 5487 5486 5486 5486 5486 5486 5487 5487 5488 5488 5489 5490 5491 5491 5492 5492 5492 5493 5494 5495
5493 5494 5493 5493 5492 5491 5490 5490 5490 5489 5488 5487 5485 5485 5484 5483 5482 5480 5479 5479 5478 5478 5477 5477 5477 5477 5476 5476 5476 5477 5477 5478 5479 5479 5480 5481 5481 5482 5482 5483 5483 5483 5484 5486
5484 5484 5483 5483 5483 5482 5481 5481 5480 5479 5478 5477 5476 5475 5474 5473 5472 5471 5470 5469 5469 5468 5468 5467 5467 5467 5467 5467 5467 5468 5468 5469 5469 5470 5471 5472 5472 5473 5474 5474 5474 5475 5476 5477
5474 5474 5474 5474 5474 5473 5472 5471 5470 5470 5469 5468 5467 5466 5465 5464 5463 5462 5461 5460 5460 5459 5459 5458 5458 5458 5458 5458 5458 5459 5459 5460 5460 5461 5462 5463 5464 5464 5465 5466 5467 5467 5468 5468
5466 5465 5465 5465 5464 5463 5462 5461 5461 5460 5460 5459 5458 5457 5456 5455 5454 5453 5452 5451 5451 5450 5450 5449 5449 5449 5448 5449 5449 5449 5450 5450 5451 5452 5453 5454 5455 5456 5457 5457 5458 5459 5460 5461
5457 5457 5456 5456 5455 5454 5453 5453 5452 5451 5451 5450 5449 5448 5447 5446 5445 5444 5443 5442 5442 5441 5441 5440 5440 5440 5439 5440 5440 5440 5441 5441 5442 5443 5444 5444 5445 5447 5448 5449 5450 5451 5452 5453
5449 5449 5448 5447 5446 5445 5445 5444 5443 5442 5441 5441 5440 5439 5438 5437 5436 5435 5434 5433 5433 5432 5432 5432 5431 5431 5431 5431 5431 5431 5432 5432 5433 5433 5434 5435 5436 5438 5439 5440 5441 5443 5444 5444
5442 5441 5440 5439 5438 5437 5436 5435 5434 5433 5432 5432 5431 5430 5429 5428 5427 5426 5425 5424 5424 5423 5423 5423 5423 5422 5422 5422 5423 5423 5423 5423 5424 5425 5426 5427 5428 5429 5430 5432 5433 5434 5436 5436
5434 5433 5432 5430 5429 5428 5427 5426 5425 5424 5423 5423 5422 5421 5420 5419 5418 5417 5416 5416 5415 5415 5414 5414 5414 5414 5414 5414 5414 5414 5415 5415 5416 5417 5417 5418 5419 5421 5422 5423 5425 5426 5427 5429
5425 5424 5423 5422 5421 5420 5419 5418 5417 5416 5415 5414 5413 5413 5412 5411 5409 5409 5408 5407 5406 5406 5405 5405 5405 5406 5406 5406 5406 5407 5407 5407 5408 5409 5409 5410 5411 5413 5414 5415 5417 5418 5420 5421
5417 5416 5415 5413 5412 5411 5410 5409 5408 5408 5407 5406 5406 5405 5404 5403 5402 5401 5400 5399 5398 5398 5398 5397 5398 5398 5398 5399 5399 5399 5399 5400 5401 5401 5402 5402 5404 5405 5406 5407 5409 5410 5411 5413
5409 5408 5406 5405 5404 5403 5402 5401 5401 5400 5399 5399 5398 5397 5396 5395 5394 5393 5392 5392 5391 5390 5390 5390 5391 5391 5391 5391 5392 5392 5392 5393 5393 5394 5395 5395 5396 5397 5398 5400 5401 5402 5403 5404
5401 5400 5398 5397 5396 5395 5394 5394 5393 5392 5392 5391 5390 5390 5389 5388 5387 5387 5386 5385 5384 5384 5384 5384 5384 5384 5384 5385 5385 5385 5386 5386 5387 5387 5388 5388 5389 5390 5391 5392 5393 5394 5395 5396
5394 5392 5391 5389 5388 5388 5387 5386 5386 5385 5384 5384 5383 5383 5382 5382 5381 5380 5380 5379 5378 5378 5378 5378 5378 5378 5379 5379 5379 5379 5380 5380 5380 5381 5381 5382 5382 5383 5384 5385 5386 5387 5387 5388
5387 5386 5384 5383 5382 5381 5380 5380 5379 5378 5378 5377 5377 5377 5376 5376 5375 5374 5374 5373 5373 5373 5373 5373 5373 5373 5373 5373 5373 5373 5374 5374 5374 5375 5375 5376 5376 5377 5378 5379 5379 5380 5381 5381
5381 5380 5378 5377 5376 5375 5374 5374 5373 5372 5372 5371 5371 5371 5370 5370 5369 5369 5368 5368 5368 5368 5368 5368 5368 5368 5368 5368 5368 5368 5368 5368 5369 5369 5369 5370 5370 5371 5372 5373 5373 5374 5374 5374
5375 5374 5373 5372 5371 5370 5369 5368 5367 5367 5366 5365 5365 5365 5364 5364 5363 5363 5362 5362 5362 5363 5363 5363 5362 5362 5362 5362 5362 5362 5363 5363 5363 5363 5364 5364 5365 5366 5366 5367 5367 5367 5368 5368